Temp_Advection
nan nan nan nan nan nan nan nan nan nan nan nan nan nan nan nan nan nan nan nan nan nan nan nan nan nan nan nan nan nan nan nan nan nan nan nan nan nan nan nan nan nan nan nan
nan -0 -0 -0 -0 -0 -0 -0 -0 -0 -0 -0 -1 -0 -0 0 0 -0 0 0 -0 -0 -0 -0 0 0 -0 0 -0 -0 -0 0 -0 0 -0 -0 -0 -0 0 0 0 1 -0 nan
nan -0 -0 -0 -0 -0 -0 0 0 -0 -1 -0 0 -0 -0 -0 -0 0 0 0 0 -0 0 0 0 0 -0 0 0 0 -0 0 0 -0 0 0 0 -0 0 1 0 -0 -0 nan
nan -0 -0 -0 -0 -0 -0 -0 0 0 -0 -0 0 0 -0 -0 -0 -0 -0 0 -0 0 0 0 0 0 0 -0 0 -0 0 -0 -0 0 0 0 0 0 0 0 0 0 -0 nan
nan -0 -0 0 -0 -0 0 0 -0 -0 0 0 0 -0 0 0 -0 0 0 0 0 0 -0 0 0 0 0 0 0 -0 0 0 -0 -0 -0 0 0 -0 0 0 0 0 0 nan
nan 0 0 0 -0 -0 0 0 0 -0 -0 -0 -0 0 0 0 -0 0 -0 0 0 0 -0 0 -0 0 -0 -0 0 0 0 0 0 -0 -0 0 0 0 0 0 -0 0 0 nan
nan 0 0 0 0 -0 0 0 0 0 -0 0 0 0 0 0 0 -0 0 0 0 -0 0 -0 -0 -0 -0 -0 0 0 0 0 0 -0 -0 1 -0 0 -0 -0 -0 -0 0 nan
nan 0 0 0 0 -0 0 0 0 0 0 0 0 0 0 -0 -0 0 0 0 0 0 -0 -0 0 -0 -0 -0 0 0 0 0 0 -0 -0 1 -0 0 0 -0 -1 -0 -0 nan
nan 0 0 0 0 0 0 0 0 0 0 1 0 -0 0 0 -0 -0 -0 0 0 0 -0 0 -0 -0 0 0 0 0 -0 0 0 0 0 -0 -0 -0 -0 -0 0 -0 -0 nan
nan 0 0 0 0 0 0 0 0 0 -1 0 1 0 0 0 0 -0 -0 -0 0 -0 -0 -0 -0 0 -0 0 0 -0 -0 0 -0 -0 -0 0 -0 -0 0 -0 -0 0 -0 nan
nan 1 1 1 1 1 1 0 1 1 -1 -0 0 0 0 0 0 0 -0 -0 -0 -0 -0 -0 0 0 0 0 -0 0 0 -0 0 0 0 0 0 0 0 -0 -0 -0 -0 nan
nan 1 1 1 1 1 1 1 1 1 0 -0 0 0 0 0 0 0 -0 -0 0 0 0 0 -0 0 0 -0 0 0 -0 -0 -0 -0 -0 -0 0 0 0 0 -0 -0 -0 nan
nan 1 1 1 1 1 0 1 1 -0 -1 -1 0 0 0 0 0 0 -0 0 0 0 0 0 -0 0 -0 -0 0 0 0 0 -0 -0 0 -0 0 0 0 0 0 -0 -0 nan
nan 1 1 1 1 1 1 1 0 -0 -2 -1 0 0 0 0 0 0 0 0 0 -0 0 0 0 0 0 -0 -0 0 -0 -0 -0 -0 0 0 -0 0 0 0 -0 -0 0 nan
nan 1 1 2 2 1 0 0 0 0 -0 -1 -0 0 0 0 0 0 0 0 0 0 -0 -0 0 0 0 0 -0 0 0 -0 0 0 -0 0 -0 0 0 0 -0 -0 0 nan
nan 1 2 2 1 -0 -0 -0 0 0 0 -1 -0 0 0 0 0 0 0 0 0 0 -0 0 0 0 -0 -0 0 -0 0 0 0 0 0 0 -0 0 0 0 -0 -0 0 nan
nan 1 2 1 0 1 0 0 0 0 0 -1 -1 -0 0 0 0 0 0 0 0 -0 0 0 0 0 0 -0 0 -0 0 0 0 0 0 -0 -0 0 0 0 0 0 -0 nan
nan 1 2 1 1 0 0 1 0 0 0 -0 -1 -0 -0 0 0 0 0 0 -0 0 0 0 0 -0 -0 -0 0 0 0 0 0 0 0 0 0 -0 0 0 0 -0 -0 nan
nan 1 -0 1 1 0 -0 0 0 0 0 -0 0 0 -0 -0 0 0 0 0 -0 0 -0 0 -0 -0 -0 0 0 0 0 0 0 0 0 0 0 0 0 0 0 -0 -0 nan
nan 0 -0 0 0 0 0 0 0 0 0 -0 -0 0 0 0 -0 0 0 0 -0 0 -0 0 -0 -0 0 0 0 0 0 0 0 0 0 0 0 0 0 1 1 0 0 nan
nan -0 -0 0 1 0 0 0 0 0 -0 -0 0 0 -0 0 0 -0 0 -0 0 -0 0 -0 -0 -0 0 0 0 0 0 0 0 0 0 0 0 0 0 0 1 0 -0 nan
nan -1 -1 1 0 0 0 0 -0 -0 0 -0 0 -0 -0 0 0 -0 0 -0 -0 0 -0 -0 -0 0 0 0 0 0 0 0 0 0 0 0 0 0 0 0 0 0 0 nan
nan -1 0 0 0 0 0 -0 -0 0 1 -0 0 0 -0 0 -0 0 -0 0 0 -0 -0 -0 -0 0 -0 0 0 0 0 0 0 0 0 0 0 0 0 0 0 0 0 nan
nan -0 -0 0 0 0 0 0 -1 -0 -0 -1 -1 0 -0 -0 -0 0 0 -0 -0 -0 -0 -0 0 0 -0 0 0 0 0 0 0 0 0 0 0 0 0 0 0 0 0 nan
nan 0 0 1 -0 -0 0 1 1 0 1 -0 -1 -0 -0 -0 -0 0 0 -0 -1 -0 -0 0 0 0 0 0 0 0 0 0 0 0 0 0 0 0 0 0 0 0 0 nan
nan -0 -0 0 -0 -0 -0 -0 0 1 0 0 -0 -0 -0 -0 -0 -0 -0 -0 -0 -0 0 0 0 0 0 0 0 0 0 0 0 0 0 0 0 0 0 0 0 0 0 nan
nan nan nan nan nan nan nan nan nan nan nan nan nan nan nan nan nan nan nan nan nan nan nan nan nan nan nan nan nan nan nan nan nan nan nan nan nan nan nan nan nan nan nan nan
Wind_Speed
13 14 15 15 17 20 20 8 3 7 7 1 4 2 2 2 4 2 1 1 1 1 0 2 3 1 2 3 1 2 2 4 5 6 3 2 4 7 7 5 10 11 14 14
15 13 13 14 17 18 19 9 3 6 2 0 3 4 3 2 3 0 1 1 2 1 1 3 3 2 3 3 1 3 2 3 5 7 4 3 6 6 6 11 11 15 12 10
15 14 14 14 14 14 14 5 2 4 7 4 3 5 3 4 3 3 2 3 2 3 3 3 2 3 3 4 4 2 2 6 7 8 11 10 15 14 10 11 9 14 14 19
17 15 15 14 13 11 9 1 1 1 2 2 4 2 7 6 5 3 5 3 6 4 3 4 3 2 3 7 6 5 3 8 9 12 13 15 17 13 12 13 14 14 17 18
20 16 15 15 13 9 5 2 3 1 2 3 4 2 6 7 3 6 4 5 5 4 3 4 3 3 4 5 7 9 5 7 9 14 16 10 13 15 14 11 12 14 15 18
21 18 14 12 12 9 5 6 6 3 5 4 3 2 5 8 10 2 0 3 4 4 3 2 3 5 5 5 5 6 6 6 7 10 8 13 13 5 6 8 9 11 14 17
20 19 16 13 12 12 10 8 7 5 3 6 3 5 4 8 7 4 6 5 2 3 2 2 4 8 10 11 12 11 8 7 7 9 12 10 4 2 3 8 11 14 15 10
23 19 16 14 13 13 12 10 10 6 2 4 5 9 6 9 7 6 7 4 3 5 1 3 4 4 5 6 6 9 11 8 6 4 8 15 5 3 2 4 17 6 4 14
19 18 18 15 15 15 14 12 14 7 8 6 7 11 13 5 5 5 4 4 6 3 3 2 3 3 3 2 3 5 5 7 6 6 9 9 5 5 2 6 5 4 14 19
21 19 19 17 16 16 15 13 13 8 6 5 11 4 6 5 5 3 5 6 5 4 3 3 3 3 1 3 4 4 5 6 11 10 11 7 6 2 1 5 5 14 16 20
24 23 21 20 19 19 17 14 13 10 6 8 7 7 5 6 7 4 8 5 3 5 4 3 2 3 1 2 2 3 4 4 5 3 4 8 6 2 4 5 13 14 18 19
30 24 23 21 20 21 17 17 15 8 7 8 9 8 9 8 9 7 10 1 4 4 3 1 1 3 2 3 3 2 3 2 3 3 4 2 3 5 10 5 9 16 18 19
27 24 25 23 21 19 17 15 12 13 12 9 6 7 9 7 7 8 4 4 5 4 5 2 1 4 0 3 4 2 4 2 3 4 3 2 8 6 1 6 15 16 16 19
27 25 25 23 22 20 16 13 16 14 12 7 4 9 7 5 5 4 6 4 8 7 4 2 2 3 3 1 2 3 3 5 3 9 12 9 1 5 9 14 15 15 17 18
35 28 26 24 25 23 16 15 19 11 5 6 7 8 7 6 5 5 6 6 6 4 3 3 3 1 2 1 2 6 7 2 3 4 6 5 12 9 14 13 14 16 18 22
33 28 29 25 26 21 21 8 12 14 8 8 4 5 8 8 8 8 8 7 4 1 2 2 2 1 1 2 4 3 6 5 7 5 9 11 14 12 9 13 15 16 18 18
30 32 26 27 27 28 10 8 13 17 11 5 7 5 6 9 8 7 4 4 2 2 2 4 2 3 2 2 5 6 6 5 7 10 11 8 3 7 14 14 15 15 16 15
36 31 28 30 25 16 9 17 17 16 5 5 5 3 5 9 4 4 4 2 3 2 2 2 3 2 3 4 6 6 5 5 8 7 9 10 13 12 12 12 14 15 15 15
37 36 34 25 16 9 14 14 14 8 4 7 3 6 4 9 4 4 3 3 3 1 4 2 2 3 5 4 8 8 5 5 7 9 9 10 10 11 11 12 13 14 14 15
44 40 10 7 14 15 18 10 6 4 3 3 4 6 3 5 5 4 3 0 0 2 1 1 3 4 5 7 7 7 7 8 8 9 7 8 12 11 13 13 13 13 15 16
31 9 5 23 27 14 5 5 3 3 2 2 5 5 8 4 4 4 3 2 2 3 2 2 3 3 6 8 7 7 8 8 8 9 10 11 13 14 14 14 14 13 15 17
20 17 31 26 7 5 4 2 3 3 4 6 6 6 7 7 5 5 3 2 1 2 1 2 3 2 7 7 5 8 9 8 8 9 10 11 12 13 14 14 14 15 16 16
34 9 8 8 5 4 6 8 3 4 11 11 9 7 5 6 4 6 3 4 2 1 2 3 3 6 9 6 6 8 8 8 8 9 10 11 12 12 13 14 14 15 15 15
6 7 7 5 5 5 2 2 5 6 13 22 18 9 5 4 3 3 4 2 1 2 3 4 4 11 11 7 7 8 7 8 9 9 10 11 12 12 12 13 14 15 14 14
5 6 4 4 4 6 5 13 14 13 26 24 15 9 5 3 4 1 3 3 4 5 4 2 6 10 8 8 8 7 7 8 9 10 10 11 11 12 12 12 13 14 14 14
4 4 4 6 5 6 6 12 19 25 25 15 7 5 3 2 3 4 5 4 6 3 4 6 8 8 8 7 7 7 8 9 10 10 11 11 11 12 12 12 12 12 14 13
3 4 7 5 7 9 8 15 20 28 11 3 5 4 2 6 2 3 4 4 2 6 8 7 8 7 6 6 7 8 8 9 10 11 11 11 12 12 13 12 11 12 12 12
Wind_Direction
321 327 325 326 336 341 346 345 292 337 357 73 55 88 79 112 129 83 353 349 7 299 238 273 279 275 46 132 66 324 49 309 290 292 70 262 292 291 294 277 294 292 302 293
312 322 323 323 329 338 349 332 308 343 16 299 109 135 112 109 154 83 160 126 327 290 253 289 237 236 127 153 207 359 70 202 293 153 164 194 231 268 259 284 281 272 280 293
299 310 319 319 319 328 345 351 301 1 50 63 129 156 178 154 125 142 149 144 173 204 224 228 264 229 183 195 217 155 251 251 260 278 310 300 292 296 288 258 271 290 294 306
286 291 306 303 305 312 338 15 180 246 321 75 123 165 164 170 181 189 185 177 227 216 251 237 237 224 210 215 205 217 253 269 278 275 288 286 283 283 293 278 264 272 299 298
282 286 293 298 294 293 293 215 174 118 131 136 162 181 201 199 162 172 189 244 175 210 251 281 300 254 227 254 180 233 211 274 291 284 284 282 275 270 278 266 280 280 296 298
269 274 275 277 276 269 250 224 216 172 163 186 219 205 177 187 155 177 333 195 180 224 285 266 285 261 271 278 255 232 242 272 296 282 299 301 281 252 244 275 282 291 296 312
273 278 270 270 257 250 237 235 202 176 184 213 226 162 164 172 177 149 155 159 201 122 145 320 271 253 252 251 246 244 262 254 272 283 294 268 101 112 298 288 290 296 309 329
254 259 261 261 248 234 228 230 208 185 172 175 165 162 143 138 128 119 150 153 131 149 167 264 271 213 229 216 237 223 236 260 282 269 295 288 168 197 288 324 303 330 333 324
254 251 254 250 242 231 223 222 219 199 143 193 147 152 177 167 167 155 142 154 169 162 236 232 262 278 8 218 192 215 212 243 251 276 287 285 81 135 330 296 282 76 331 324
264 254 249 246 236 222 214 209 208 192 123 150 148 165 185 178 166 132 145 167 170 175 208 238 247 256 348 257 249 185 212 235 240 251 262 273 114 117 270 277 6 319 325 321
258 256 242 238 227 207 206 206 200 188 117 150 166 157 153 159 183 174 141 144 183 181 214 242 209 254 143 281 299 267 244 254 232 246 274 262 152 192 260 335 316 320 320 318
262 255 241 231 204 205 200 192 181 203 174 147 159 155 161 177 168 152 160 39 137 166 204 241 301 226 185 300 277 207 257 292 331 284 2 115 304 278 299 297 312 319 316 315
271 260 241 224 217 192 198 191 198 169 126 109 117 136 144 155 162 174 154 184 185 177 151 123 334 245 240 238 249 272 190 163 257 334 81 353 316 314 304 313 317 315 313 315
262 248 234 220 209 185 201 206 171 181 134 116 156 162 156 163 159 172 200 213 175 160 132 144 214 255 186 302 355 282 39 152 262 259 273 313 134 322 308 310 313 313 313 315
254 230 228 228 193 183 197 162 179 175 172 126 137 155 158 149 128 121 124 137 134 149 157 185 213 229 227 175 281 248 177 201 240 308 338 278 295 313 314 309 312 315 314 318
233 223 221 192 176 158 149 134 190 196 180 116 135 158 158 150 135 125 122 125 124 180 193 202 182 174 259 261 268 134 187 214 247 282 294 289 290 301 306 310 310 311 313 309
213 215 208 179 154 159 158 173 172 177 171 132 110 123 159 157 138 124 121 155 179 249 226 224 190 172 212 267 263 140 182 225 266 276 291 297 298 299 305 306 308 310 313 314
195 194 163 147 154 163 149 128 146 155 152 127 120 109 150 165 131 116 155 167 194 213 259 207 209 157 215 253 229 176 199 264 275 271 269 281 297 301 303 306 311 313 316 318
177 158 139 140 144 161 138 149 165 167 162 133 138 148 154 158 114 105 118 165 212 230 239 192 220 182 225 239 192 198 225 255 270 282 285 288 286 296 303 308 311 311 315 320
157 139 128 125 150 148 137 141 160 178 168 125 103 128 118 140 131 106 144 164 253 232 131 259 237 255 232 219 206 230 264 277 279 289 299 287 295 298 305 312 313 310 315 316
141 136 114 139 132 138 159 148 172 160 110 127 125 126 127 126 131 124 136 169 190 232 131 257 225 252 198 191 211 252 272 277 281 288 294 300 304 308 312 317 316 314 313 319
160 134 122 127 153 174 157 169 122 213 190 148 140 127 115 122 121 110 137 192 204 233 124 247 249 173 162 189 237 261 271 274 282 292 296 302 305 307 308 312 317 317 321 324
132 95 126 163 178 180 202 182 181 181 169 165 153 124 112 110 106 91 158 186 195 112 220 239 245 163 185 217 271 266 269 276 284 291 296 302 307 309 310 311 315 316 322 324
95 129 144 211 192 222 184 147 114 127 142 137 128 106 106 112 100 125 159 87 252 226 235 235 187 203 206 246 263 261 268 274 284 288 294 298 304 309 309 308 312 316 322 325
112 156 180 193 113 76 106 120 117 125 144 135 112 88 99 101 111 122 123 156 225 227 230 182 175 190 217 248 254 264 270 275 281 286 292 297 301 307 311 308 309 313 320 324
87 87 110 135 101 132 130 118 124 141 143 124 97 108 115 119 138 167 205 182 221 203 200 182 194 218 243 248 255 271 278 275 279 285 292 296 299 303 309 313 310 313 319 324
78 75 106 97 94 135 138 145 147 149 138 116 131 129 112 116 166 202 198 214 202 171 181 201 223 235 244 250 263 277 279 277 282 285 290 294 297 300 304 312 314 312 315 319
Height
1562 1560 1557 1555 1553 1549 1545 1542 1539 1538 1536 1538 1543 1547 1555 1560 1560 1561 1561 1561 1559 1557 1559 1557 1558 1557 1562 1568 1570 1569 1571 1568 1561 1552 1560 1564 1563 1560 1558 1556 1548 1540 1540 1531
1560 1558 1555 1552 1551 1548 1545 1544 1541 1539 1536 1533 1543 1555 1557 1558 1559 1562 1561 1562 1565 1564 1561 1558 1560 1563 1569 1570 1570 1569 1571 1565 1558 1550 1562 1564 1562 1555 1556 1556 1552 1550 1547 1534
1557 1555 1553 1550 1548 1546 1544 1544 1542 1541 1539 1542 1542 1548 1553 1556 1558 1560 1560 1560 1562 1563 1561 1563 1560 1562 1567 1569 1569 1571 1572 1567 1566 1555 1553 1555 1554 1553 1552 1552 1553 1542 1538 1532
1553 1552 1550 1548 1545 1544 1544 1542 1544 1544 1541 1543 1545 1546 1548 1552 1555 1559 1561 1561 1558 1558 1557 1560 1559 1561 1564 1566 1568 1569 1569 1565 1560 1559 1558 1556 1553 1553 1555 1551 1547 1548 1541 1541
1548 1547 1544 1544 1543 1541 1541 1541 1543 1545 1545 1547 1546 1547 1547 1549 1556 1556 1557 1559 1560 1561 1558 1559 1560 1561 1563 1559 1564 1564 1562 1561 1556 1557 1549 1548 1551 1548 1548 1550 1547 1543 1540 1539
1542 1541 1540 1539 1539 1538 1537 1537 1538 1540 1546 1546 1545 1541 1543 1546 1550 1558 1556 1557 1560 1562 1563 1563 1564 1564 1564 1563 1563 1561 1560 1557 1555 1550 1543 1545 1541 1543 1548 1550 1549 1546 1544 1540
1536 1535 1534 1534 1533 1534 1534 1534 1535 1537 1538 1543 1543 1544 1548 1550 1550 1551 1556 1558 1558 1562 1564 1565 1565 1564 1562 1561 1561 1561 1558 1557 1557 1551 1547 1544 1549 1552 1554 1552 1548 1545 1542 1544
1528 1529 1528 1527 1528 1528 1529 1531 1532 1532 1534 1538 1544 1546 1548 1552 1553 1554 1555 1558 1560 1559 1562 1562 1558 1557 1559 1556 1558 1559 1560 1556 1553 1551 1541 1536 1552 1551 1553 1554 1546 1544 1549 1548
1520 1521 1522 1521 1522 1523 1524 1526 1528 1530 1531 1537 1538 1543 1549 1549 1548 1554 1556 1557 1558 1560 1559 1558 1556 1543 1546 1550 1556 1560 1558 1557 1554 1544 1550 1542 1541 1552 1555 1555 1543 1549 1550 1547
1513 1515 1515 1516 1516 1517 1520 1521 1523 1525 1528 1536 1539 1540 1545 1547 1546 1546 1553 1557 1558 1560 1558 1554 1551 1546 1553 1550 1550 1554 1555 1555 1550 1543 1540 1535 1547 1552 1555 1549 1550 1550 1549 1546
1507 1509 1510 1510 1511 1512 1515 1516 1519 1521 1525 1535 1537 1538 1541 1543 1546 1544 1551 1556 1556 1558 1557 1552 1546 1551 1550 1555 1550 1550 1549 1548 1543 1544 1544 1540 1549 1550 1551 1551 1550 1549 1547 1544
1499 1501 1503 1504 1506 1509 1511 1512 1515 1518 1525 1533 1536 1538 1540 1541 1543 1545 1547 1551 1550 1551 1551 1556 1554 1553 1557 1553 1545 1556 1554 1551 1551 1548 1541 1549 1550 1550 1549 1548 1549 1547 1545 1542
1492 1495 1497 1498 1501 1505 1510 1510 1512 1517 1524 1536 1539 1539 1541 1541 1541 1544 1547 1549 1549 1551 1550 1553 1554 1554 1552 1549 1545 1549 1554 1557 1555 1555 1549 1549 1549 1550 1549 1548 1546 1544 1542 1539
1486 1490 1492 1494 1495 1502 1507 1508 1512 1515 1519 1529 1538 1538 1539 1542 1540 1541 1545 1548 1548 1552 1554 1554 1554 1553 1553 1547 1552 1553 1553 1556 1554 1550 1546 1548 1547 1548 1548 1546 1544 1541 1538 1535
1479 1484 1486 1488 1491 1497 1503 1507 1511 1514 1519 1525 1537 1538 1539 1541 1541 1541 1543 1548 1550 1554 1555 1554 1552 1553 1554 1554 1555 1548 1549 1548 1549 1543 1550 1549 1547 1545 1544 1543 1541 1538 1535 1530
1474 1481 1481 1485 1490 1496 1504 1509 1514 1514 1516 1519 1534 1538 1539 1541 1540 1540 1544 1548 1552 1556 1554 1553 1552 1552 1554 1551 1544 1546 1546 1548 1550 1551 1548 1547 1545 1543 1541 1540 1538 1535 1532 1528
1472 1477 1477 1483 1491 1499 1500 1503 1506 1511 1515 1517 1534 1537 1539 1540 1542 1541 1545 1548 1552 1556 1556 1553 1550 1551 1553 1551 1545 1545 1545 1546 1549 1549 1546 1544 1543 1541 1539 1537 1534 1531 1528 1526
1468 1472 1478 1484 1494 1501 1501 1501 1507 1510 1514 1516 1526 1537 1539 1539 1541 1543 1545 1549 1552 1555 1555 1554 1549 1550 1551 1546 1542 1543 1544 1544 1545 1545 1543 1542 1541 1538 1536 1534 1531 1528 1525 1522
1467 1473 1480 1488 1497 1504 1501 1503 1509 1511 1515 1516 1523 1526 1530 1536 1538 1542 1548 1549 1550 1553 1552 1552 1551 1543 1543 1536 1540 1541 1542 1541 1541 1541 1540 1539 1538 1536 1534 1531 1528 1526 1522 1519
1467 1473 1480 1489 1494 1499 1504 1508 1510 1511 1512 1515 1520 1523 1530 1534 1535 1542 1549 1550 1551 1550 1552 1552 1546 1535 1534 1535 1536 1538 1539 1538 1538 1537 1537 1536 1535 1533 1531 1528 1526 1523 1520 1517
1464 1472 1479 1487 1493 1501 1504 1504 1507 1510 1513 1514 1518 1520 1525 1532 1534 1539 1546 1549 1552 1547 1548 1549 1538 1531 1530 1531 1533 1534 1535 1535 1535 1534 1534 1533 1532 1530 1527 1525 1523 1521 1518 1514
1461 1467 1478 1489 1495 1499 1501 1501 1504 1506 1506 1512 1516 1519 1521 1528 1533 1537 1546 1549 1552 1542 1550 1547 1534 1526 1529 1530 1530 1531 1532 1532 1531 1531 1531 1530 1529 1527 1524 1522 1520 1518 1515 1512
1460 1467 1480 1488 1491 1492 1491 1491 1494 1499 1503 1506 1511 1517 1520 1528 1532 1538 1544 1545 1544 1550 1546 1534 1524 1525 1527 1528 1528 1528 1528 1528 1528 1528 1528 1527 1526 1524 1521 1519 1518 1515 1512 1509
1456 1466 1478 1478 1481 1476 1472 1473 1478 1488 1492 1500 1505 1513 1519 1526 1532 1537 1538 1548 1548 1543 1539 1527 1520 1522 1524 1525 1525 1525 1525 1525 1525 1526 1525 1524 1523 1521 1519 1517 1515 1512 1510 1507
1456 1465 1465 1473 1473 1472 1477 1476 1480 1487 1493 1498 1504 1512 1518 1528 1534 1537 1541 1544 1536 1529 1520 1516 1518 1520 1521 1522 1522 1522 1522 1522 1523 1523 1522 1521 1520 1518 1516 1514 1512 1510 1507 1505
1458 1463 1469 1472 1471 1477 1479 1479 1482 1488 1492 1498 1502 1511 1519 1526 1528 1531 1526 1525 1520 1512 1514 1515 1516 1518 1518 1518 1519 1519 1519 1520 1520 1520 1519 1518 1517 1515 1514 1512 1509 1507 1505 1502
1463 1466 1467 1467 1470 1474 1477 1480 1484 1488 1493 1496 1501 1507 1514 1526 1525 1522 1521 1513 1507 1508 1510 1513 1514 1515 1515 1515 1516 1516 1516 1516 1516 1516 1515 1514 1513 1512 1510 1509 1507 1505 1502 1500